Theta_e
352 354 355 356 357 357 356 358 356 356 357 360 358 358 359 360 357 358 361 359 360 360 361 362 362 361 358 361 357 363 367 366 365 369 370 370 369 368 370 369 369 367 370 365 361 364 370 368 366 371 372 365 368 359 358 364 365 371 367 358 355 357 359 365 357 355 363 371 359 355 356 359 353 363 360 358 357 368 358 364 370 359 357 357 371
351 355 355 353 352 353 355 355 356 356 354 354 356 356 356 359 360 359 356 358 359 357 360 357 362 361 360 360 365 359 367 368 361 363 367 368 364 360 364 369 367 366 368 367 368 360 367 369 369 365 371 367 362 355 357 358 354 359 357 360 361 361 367 363 367 361 355 369 367 365 360 360 353 369 363 359 361 364 361 363 358 357 353 357 352
351 355 353 354 355 353 353 354 355 354 352 351 351 351 355 356 358 356 355 356 358 359 359 357 364 363 360 363 365 365 367 364 365 366 365 367 365 360 360 364 365 363 361 364 365 368 364 367 363 365 356 359 362 359 355 359 358 359 359 358 356 354 362 369 366 360 357 359 365 359 365 368 364 361 363 361 364 365 362 358 351 350 353 354 354
357 361 359 353 350 351 352 352 352 352 350 350 350 351 350 352 356 353 355 353 353 358 360 359 360 365 363 366 366 364 364 364 365 362 363 364 363 364 366 366 364 363 362 361 359 362 361 365 360 361 364 366 365 369 368 363 362 367 361 366 369 365 369 370 372 369 366 359 365 362 365 363 363 365 362 361 358 359 357 364 358 354 354 353 351
360 357 358 360 359 350 349 349 349 350 349 348 348 349 349 349 352 353 353 353 353 355 360 361 363 368 358 361 364 365 364 365 364 360 361 363 364 364 363 365 363 365 364 364 363 365 365 361 361 364 365 365 364 363 362 362 362 366 362 368 369 369 364 364 367 367 365 361 362 366 366 363 363 363 366 359 361 360 369 361 358 356 366 355 350
366 362 361 357 361 356 352 349 348 347 348 348 348 347 347 348 348 350 352 353 354 355 356 357 362 365 366 363 365 367 367 366 365 364 358 358 362 362 364 364 362 363 362 361 361 363 361 364 364 365 365 363 359 364 371 364 361 362 359 369 369 368 367 367 366 366 362 362 360 359 363 359 362 367 366 370 358 354 354 358 361 365 367 363 359
366 363 357 354 358 360 358 361 364 351 348 348 348 348 347 347 347 347 350 352 352 351 353 357 361 364 367 362 360 365 366 363 370 368 364 361 361 362 357 360 360 360 360 358 357 358 358 358 361 362 363 363 364 363 363 363 361 364 373 369 370 369 363 363 366 363 364 360 360 359 360 365 358 351 358 361 357 354 353 355 357 365 365 366 362
362 361 360 360 360 359 361 364 365 365 361 365 358 349 348 348 351 351 352 352 350 350 348 354 356 360 362 362 364 364 367 365 367 369 369 364 362 359 360 357 357 358 357 358 356 354 357 358 354 357 360 366 362 363 366 360 366 364 367 373 372 369 363 364 365 362 360 357 358 354 360 355 357 358 357 357 361 364 363 355 345 355 361 373 369
358 360 362 361 361 362 365 362 358 360 362 366 364 359 356 356 359 359 364 352 349 350 350 349 353 355 358 362 362 360 358 359 360 362 365 364 364 358 359 358 356 358 357 356 361 361 359 356 356 353 372 362 361 363 369 365 361 369 375 374 374 368 367 366 364 366 362 359 357 358 355 355 355 354 358 361 351 346 350 356 357 357 355 353 359
352 357 357 359 362 363 363 361 359 361 359 358 358 359 357 356 355 359 358 359 362 363 363 355 349 351 356 358 360 357 355 357 365 365 365 366 364 359 358 366 367 361 363 365 359 359 357 356 354 367 366 366 364 368 370 372 367 361 365 368 367 368 367 365 363 363 360 359 357 354 349 347 346 347 348 349 350 357 356 356 355 357 357 357 358
353 353 354 357 359 360 361 358 357 356 355 354 354 353 350 350 353 356 360 360 365 369 361 354 349 349 350 355 356 356 354 356 354 343 345 354 363 362 361 366 365 363 360 367 366 360 358 358 356 359 369 369 368 375 370 370 372 363 360 362 362 366 358 357 359 358 356 352 352 350 348 351 353 353 352 349 356 356 357 359 359 359 356 353 351
352 352 353 355 357 357 357 356 355 353 352 351 350 351 348 349 349 348 348 353 361 356 356 358 361 353 349 349 352 353 352 338 329 333 340 343 358 362 362 361 359 359 360 358 361 360 357 353 351 351 358 363 364 372 372 369 368 370 369 367 367 368 366 363 361 358 356 356 356 355 353 353 355 355 354 357 358 358 361 360 361 360 357 356 355
354 353 354 354 355 356 356 356 356 354 351 350 351 350 347 347 347 347 351 353 355 359 357 354 354 356 351 351 351 352 348 329 329 333 336 338 346 367 358 357 354 355 354 359 362 364 363 360 354 358 355 362 364 366 373 371 367 365 367 369 371 366 351 348 352 358 357 355 354 353 355 357 356 360 363 362 361 357 357 356 357 357 357 355 354
348 347 349 351 352 353 354 354 355 352 351 352 353 351 348 347 348 353 356 360 358 356 358 357 357 356 353 353 351 348 346 331 327 329 330 333 336 349 358 354 353 352 358 356 355 359 354 353 354 358 361 355 353 357 366 366 370 371 369 370 367 368 366 353 349 351 355 354 354 352 354 359 360 364 367 365 359 356 355 354 356 355 354 353 355
344 345 345 346 347 348 350 351 352 353 354 354 354 355 350 349 355 357 355 354 357 358 359 356 353 353 352 353 352 346 338 322 324 326 326 328 333 350 358 353 353 358 359 355 353 351 351 355 357 359 359 351 346 343 356 363 369 364 365 365 364 368 360 357 359 359 359 356 356 357 360 364 366 365 364 364 361 360 360 359 359 358 358 359 358
341 341 342 343 344 346 346 348 350 350 352 353 353 353 353 355 354 359 358 358 358 357 355 351 351 350 351 350 352 344 333 319 321 322 322 327 334 352 357 360 360 355 353 350 354 358 357 354 354 359 353 347 338 332 342 356 363 362 362 361 363 361 360 363 350 351 362 359 361 358 357 356 347 355 357 354 355 359 361 360 359 358 357 356 353
338 339 340 340 342 343 345 346 347 346 347 348 348 350 350 352 352 355 355 355 354 353 351 349 349 351 352 353 351 344 336 320 316 316 318 320 338 356 359 360 362 355 346 351 357 357 357 357 357 354 349 342 331 323 329 355 362 360 360 358 357 358 359 364 342 340 340 337 335 336 335 332 330 331 331 332 342 351 355 353 353 356 353 349 350
339 339 338 339 341 342 343 342 343 345 344 342 343 346 349 349 351 354 352 353 352 351 349 347 348 350 352 351 348 341 333 321 313 313 314 316 333 354 363 361 352 352 354 352 353 351 353 360 356 348 342 336 323 322 325 347 355 354 354 353 353 353 357 352 351 349 346 344 342 339 337 336 335 334 333 332 332 339 353 352 355 356 352 351 348
336 338 337 339 341 341 342 342 341 342 341 341 343 343 344 346 349 350 349 352 352 352 350 345 345 347 349 347 346 338 332 326 314 312 312 314 333 357 362 353 351 350 350 351 352 351 342 342 343 340 337 328 317 319 323 342 347 345 349 347 347 351 337 335 337 338 340 339 342 347 351 352 360 362 364 352 343 353 357 358 361 359 352 351 350
333 336 337 336 338 340 343 342 341 341 341 341 342 343 345 346 347 347 347 348 349 350 348 345 343 344 344 342 340 337 332 326 319 311 310 314 322 357 355 352 348 348 350 348 349 351 346 336 331 321 319 317 314 313 316 319 339 341 343 344 344 339 336 337 339 340 341 340 340 343 345 348 351 354 355 353 358 360 358 364 366 364 357 353 350
333 335 336 335 335 336 336 338 339 339 341 343 342 344 346 345 344 342 342 345 346 346 345 344 341 337 336 335 332 333 334 330 324 310 309 310 314 333 345 347 349 347 347 348 349 351 350 347 332 321 315 314 312 310 310 314 323 338 345 345 339 336 334 340 341 345 343 345 345 346 347 349 346 345 345 357 360 364 363 364 369 367 361 355 350
330 331 333 334 335 336 339 340 338 339 342 343 341 339 341 343 342 342 340 337 335 335 334 334 332 331 332 332 331 331 332 330 329 317 311 309 309 313 331 332 339 347 344 342 341 343 347 351 335 323 314 314 311 309 308 311 315 336 344 321 318 321 336 338 341 344 344 345 349 349 347 347 347 349 348 348 347 349 349 349 353 358 364 361 357
331 332 333 332 333 333 337 337 338 339 339 339 338 338 340 340 340 339 338 335 334 333 332 332 331 330 329 329 330 330 330 329 326 326 315 310 309 311 313 323 322 344 343 339 338 340 344 349 336 328 311 310 308 308 309 309 321 334 314 311 316 319 329 336 342 345 347 350 351 348 348 349 347 346 346 347 347 351 349 351 353 355 356 356 357
334 331 331 331 330 330 331 336 340 340 338 338 337 337 340 340 340 339 337 336 334 333 333 332 331 329 327 328 329 331 332 332 330 327 324 314 312 310 312 313 316 330 343 344 343 344 337 331 329 311 308 306 306 309 311 316 326 318 312 313 317 328 334 336 338 344 350 351 349 349 348 351 348 348 348 350 349 352 355 353 352 351 351 353 355
329 329 330 330 331 329 331 335 337 337 336 336 335 335 336 339 340 341 339 336 336 334 333 334 333 331 330 328 328 329 332 334 332 330 329 327 318 315 316 318 317 320 332 328 330 330 322 313 310 309 311 309 308 309 314 319 314 311 312 314 331 334 338 342 343 348 348 347 346 346 344 347 349 351 353 357 357 354 353 353 353 350 350 349 348
327 326 325 326 327 329 330 327 327 333 331 333 335 337 335 335 337 338 341 336 336 335 334 333 333 333 330 329 328 329 331 332 331 333 333 333 330 323 321 321 330 333 334 333 331 324 320 318 316 317 320 323 330 336 338 341 333 327 324 328 335 336 338 341 346 351 346 345 344 346 345 346 345 346 351 357 352 350 351 350 346 345 342 340 340
328 328 328 323 324 324 324 325 326 327 328 329 330 331 333 331 328 328 328 327 332 334 332 333 333 330 330 330 330 330 330 330 328 328 325 326 329 331 339 339 335 336 338 330 329 329 331 331 329 322 320 321 322 323 324 326 327 330 334 336 336 337 343 345 348 351 340 340 340 339 341 343 345 346 341 342 345 346 341 340 339 337 337 338 339
323 323 323 324 325 321 322 323 325 322 323 324 324 325 328 326 321 319 319 319 319 321 327 328 328 330 330 332 333 331 322 320 320 320 320 319 320 323 324 325 326 329 323 321 323 327 330 333 330 334 335 335 337 337 332 329 331 334 339 341 344 346 343 341 348 344 343 345 345 346 344 345 341 338 338 339 344 342 341 338 335 333 335 337 336
326 326 323 320 320 329 325 325 325 323 321 323 320 319 320 323 323 319 318 318 318 318 321 322 325 325 323 324 325 323 319 317 317 307 312 303 311 316 319 318 318 323 318 307 319 326 329 331 333 335 337 335 336 337 335 333 333 340 338 343 343 341 343 337 337 336 342 341 340 337 333 332 334 335 335 334 335 334 334 331 332 333 337 338 334
323 320 321 321 323 324 322 319 322 326 322 319 319 318 314 306 312 320 317 315 308 306 309 317 318 325 320 318 320 319 318 317 304 298 296 296 296 297 297 295 296 305 306 306 315 322 327 329 332 333 333 334 329 330 331 334 337 340 342 336 337 332 332 332 332 334 335 339 334 331 331 331 331 331 330 329 329 328 328 327 332 335 332 330 328
324 320 319 318 321 323 322 323 324 327 325 325 323 320 317 316 299 298 307 308 301 296 297 298 302 307 324 318 313 306 305 299 296 296 296 296 295 294 294 294 294 295 298 314 324 325 325 326 330 333 337 337 332 330 334 332 338 334 332 332 333 332 330 330 330 332 332 331 330 329 329 329 327 328 327 326 326 326 328 330 330 330 329 327 326
324 321 321 320 324 326 322 323 324 324 326 325 327 328 322 319 318 300 295 301 300 295 295 296 297 299 302 311 323 319 306 296 292 296 297 297 296 295 294 294 294 295 297 303 318 324 328 331 331 332 332 330 330 332 331 332 333 333 332 329 330 330 328 327 331 332 330 327 326 327 327 326 326 326 325 324 324 325 326 326 327 327 326 325 326
321 320 322 324 323 323 323 324 323 325 324 325 324 323 324 324 319 318 316 298 296 295 295 296 296 295 295 294 296 300 302 298 293 298 297 296 294 294 293 296 295 294 298 316 325 326 330 331 334 333 329 329 330 330 331 330 330 329 328 328 327 327 327 330 330 329 326 325 325 323 323 324 324 323 322 323 324 323 324 324 325 325 324 323 323
320 321 322 321 322 323 324 320 324 324 324 324 324 323 324 321 320 323 317 316 315 309 300 298 294 295 293 291 294 295 294 298 300 299 299 296 294 295 294 304 301 296 304 320 324 324 328 333 331 330 332 329 328 329 328 328 328 327 327 327 326 325 326 328 328 325 323 322 321 321 323 322 322 322 323 323 323 322 321 321 321 321 320 320 319
317 316 318 322 326 324 323 324 322 323 324 323 322 322 323 325 322 320 321 321 320 317 317 317 304 299 312 305 297 291 292 294 295 297 297 297 296 294 300 321 325 321 316 318 322 326 325 322 321 322 324 324 324 325 324 324 323 323 323 322 322 322 322 323 323 323 322 321 322 323 323 322 322 322 320 320 319 319 319 319 319 318 318 318 318
321 318 319 320 322 322 322 322 323 322 321 322 321 321 321 321 321 322 322 322 320 321 320 318 317 310 300 301 298 292 291 292 293 295 297 298 297 300 317 321 321 325 326 328 326 324 323 321 321 321 321 320 321 320 320 320 321 321 322 321 320 320 321 320 320 320 321 322 321 324 320 322 320 319 318 318 318 317 317 317 316 316 315 314 314
321 321 321 321 322 321 321 320 321 319 314 316 317 321 321 322 322 320 321 322 322 322 321 320 319 317 313 320 313 295 292 293 296 297 297 298 297 310 315 318 321 324 322 321 323 322 321 320 321 320 319 319 319 319 320 319 320 320 321 321 321 321 321 320 319 322 322 318 318 318 317 316 316 316 315 314 314 314 313 312 311 312 312 312 313
323 322 321 321 322 321 321 322 317 313 318 318 322 323 320 319 318 317 318 319 320 316 317 320 322 320 319 318 318 317 315 308 303 299 301 303 311 317 321 322 325 321 320 319 319 320 319 320 319 319 318 318 318 318 317 319 319 318 317 318 319 321 321 321 323 320 318 315 314 314 314 313 313 312 311 310 309 309 308 308 308 308 309 311 310
317 314 312 311 310 318 319 319 319 318 319 318 318 317 317 315 316 318 320 319 319 319 319 320 318 315 314 314 314 316 315 314 313 318 319 320 320 320 319 318 319 320 318 318 319 318 318 318 318 319 319 318 319 321 319 317 318 318 319 318 317 317 316 315 315 315 314 312 312 312 311 310 309 308 308 307 307 306 306 306 307 307 307 307 307
318 313 311 311 311 311 316 317 316 316 316 316 316 317 316 317 318 318 317 317 317 319 316 317 315 313 312 312 310 311 310 311 311 314 318 317 317 317 317 316 317 316 316 315 315 314 314 314 316 316 319 319 319 320 321 319 316 316 317 316 315 314 315 314 312 311 310 310 308 307 305 305 305 305 305 306 305 305 305 305 306 306 306 305 305
320 315 314 313 314 315 315 315 316 316 317 318 317 317 316 317 316 315 315 315 315 315 315 315 312 310 308 307 300 302 309 309 311 314 316 316 316 315 314 314 313 314 314 315 314 314 313 313 313 314 315 316 317 317 315 314 314 313 312 312 312 312 311 311 311 309 307 306 304 304 304 304 304 303 303 304 305 305 305 305 304 304 304 304 304
318 318 316 313 311 312 315 316 317 317 316 314 315 314 315 316 315 315 315 315 314 314 314 314 311 309 304 299 298 295 306 310 312 314 315 314 314 313 312 313 312 313 312 313 314 314 314 314 312 313 313 313 312 313 312 311 310 309 308 308 308 308 307 307 306 303 303 302 302 302 303 303 303 303 303 304 302 302 303 303 303 303 303 303 303
320 318 317 317 315 315 316 316 317 316 317 316 315 315 315 313 313 313 313 313 313 312 312 312 313 311 310 304 306 302 311 313 313 313 312 312 313 313 312 311 311 311 312 312 313 311 310 310 310 311 311 311 311 310 309 309 309 307 307 306 306 306 307 305 302 303 301 301 301 301 301 301 301 301 301 302 301 302 301 301 302 302 302 302 302
318 316 317 316 316 315 316 315 314 314 314 314 314 314 313 312 312 313 312 312 312 312 312 312 312 312 311 309 310 308 309 310 310 310 310 311 310 310 309 308 309 309 309 311 310 309 309 308 308 309 310 310 309 308 307 307 307 307 307 306 306 305 303 303 302 301 300 299 299 300 299 300 300 299 300 300 300 300 300 301 301 301 300 301 301
317 315 314 314 314 314 314 315 313 313 313 312 312 311 314 313 312 311 311 310 311 311 311 311 310 310 309 309 308 308 308 308 309 309 309 309 310 308 307 307 307 309 307 308 308 309 308 307 307 307 306 306 306 306 306 307 308 307 306 303 301 301 300 301 301 302 301 300 298 298 298 298 298 298 299 299 300 300 299 299 299 300 300 300 300
314 314 314 314 314 314 313 314 315 313 312 312 312 311 312 311 312 310 310 309 309 308 308 309 310 309 309 308 307 307 307 307 307 307 308 308 308 306 306 306 306 306 306 307 308 307 307 306 305 304 304 304 304 304 305 306 307 307 304 302 301 299 300 301 301 300 299 299 297 297 297 297 297 298 300 299 299 299 299 299 299 300 299 299 299
315 314 313 313 312 313 314 314 312 312 312 311 312 310 310 310 308 309 310 308 307 307 307 307 307 307 307 307 306 306 307 306 306 306 306 307 307 306 306 306 305 306 305 306 307 306 305 305 304 304 303 304 304 306 304 304 305 304 301 300 299 298 298 300 300 299 297 297 297 297 297 296 297 297 298 299 299 298 299 299 299 299 299 299 299
315 314 313 313 313 311 311 311 309 309 309 310 309 309 308 308 307 307 307 307 306 306 305 305 305 305 306 306 306 306 305 305 306 306 305 305 305 305 305 305 304 303 304 304 304 305 304 304 303 303 303 304 304 303 304 304 305 301 298 298 297 297 297 299 299 298 297 297 297 297 296 296 296 296 297 298 297 298 298 298 299 299 299 299 300
313 312 311 310 310 310 311 310 311 308 309 309 308 307 307 306 306 305 305 305 305 305 304 304 305 305 305 305 305 304 304 304 304 304 304 304 306 304 305 304 304 303 302 302 303 303 304 303 304 303 302 304 303 303 302 303 302 300 297 297 296 295 294 295 296 296 296 297 297 296 296 296 296 296 297 297 298 298 298 298 299 299 300 300 301
308 309 309 310 310 311 313 310 310 309 309 308 308 306 306 306 304 304 304 304 304 304 303 303 304 304 303 303 303 303 303 302 302 303 303 304 303 304 303 303 303 301 301 301 301 302 302 303 302 302 302 303 302 302 301 301 300 298 297 295 292 290 291 295 295 294 294 295 295 295 295 295 296 296 297 298 298 298 298 298 300 300 301 300 300
309 310 310 312 311 309 310 308 308 309 308 307 306 307 307 305 303 303 303 303 303 302 302 302 303 302 302 302 302 302 301 302 302 302 302 302 303 303 302 301 300 300 300 300 300 300 301 302 301 301 300 301 301 300 301 300 298 298 295 291 289 288 288 290 294 289 290 291 294 295 295 295 296 297 297 297 298 298 299 300 300 300 301 301 301
Wind_Speed
14 10 9 7 8 10 10 9 10 9 10 10 7 7 7 7 7 8 5 6 5 6 7 6 5 6 7 6 7 4 4 3 3 3 3 3 3 3 2 2 2 3 3 4 5 2 2 2 1 2 2 2 2 4 3 1 2 2 3 5 6 5 3 1 2 3 2 2 3 4 5 4 5 3 4 3 4 2 6 4 3 6 7 5 2
9 9 9 9 9 9 10 10 9 8 9 10 11 10 9 8 7 5 7 6 6 6 5 7 5 5 6 5 3 6 4 5 6 4 3 4 4 6 5 4 4 4 4 4 3 4 2 2 2 2 2 2 3 4 3 2 3 3 2 4 1 1 2 2 2 1 3 2 2 3 3 3 5 3 3 4 3 3 4 3 4 4 5 4 5
9 7 8 9 8 9 9 9 9 9 10 9 10 10 9 9 9 8 9 8 6 5 5 5 4 5 6 6 4 5 3 4 4 3 3 3 4 6 5 5 5 5 5 4 4 3 3 2 3 2 4 3 3 4 3 3 2 2 3 3 4 5 4 2 1 1 2 3 2 3 2 2 3 3 4 4 4 3 4 4 4 5 5 5 5
4 5 6 8 11 11 9 7 10 9 8 8 9 9 9 10 8 9 8 6 6 6 5 2 2 5 5 3 5 6 5 6 5 6 5 5 5 6 3 4 5 5 5 5 5 4 4 3 4 3 2 2 2 1 1 4 4 2 1 4 4 2 2 1 1 1 1 2 2 3 2 3 4 3 3 4 3 4 4 3 4 5 5 5 5
4 3 5 5 5 8 9 9 10 11 11 10 10 9 9 8 7 8 8 9 7 7 5 6 5 3 5 5 4 4 7 7 6 7 7 6 7 6 4 4 5 5 4 4 4 4 3 4 4 3 3 2 2 2 2 2 3 2 2 2 3 1 2 2 3 3 2 3 2 2 4 4 4 4 3 3 3 3 1 3 4 5 3 3 6
3 7 4 6 4 6 7 8 9 9 9 9 9 9 8 8 8 8 8 7 9 9 4 4 5 5 4 5 4 4 4 5 5 5 7 7 7 6 5 5 5 5 4 4 5 4 4 3 3 2 3 2 3 1 2 2 4 1 5 1 2 2 2 3 3 4 4 4 4 4 4 5 2 2 2 2 3 3 4 5 4 3 2 2 2
4 4 7 8 6 5 4 4 3 5 7 7 6 6 8 9 8 8 8 7 7 8 8 6 6 7 5 5 6 5 5 5 3 4 5 5 4 4 7 6 6 5 5 6 6 6 6 6 5 3 3 3 2 2 4 2 3 2 2 1 1 1 2 2 2 3 2 3 2 3 2 2 3 4 5 4 4 4 5 4 3 3 2 2 3
1 2 4 3 2 3 3 3 4 3 3 2 4 6 7 6 5 6 5 7 8 8 9 11 10 8 8 7 5 4 4 4 4 3 3 5 4 5 5 5 7 7 7 6 7 6 6 4 7 4 4 3 5 3 3 4 4 3 1 1 1 2 2 2 2 2 3 3 3 4 2 3 4 4 4 4 3 2 3 3 5 3 3 2 2
2 2 2 2 1 3 2 7 10 8 4 3 3 4 5 4 3 4 2 5 8 8 8 8 7 7 7 6 5 5 6 6 5 5 5 5 5 5 5 5 6 4 5 5 3 4 4 5 3 5 2 3 1 2 3 3 2 0 1 1 1 1 2 2 3 3 4 4 4 4 5 5 5 5 3 2 3 6 4 3 3 4 5 6 4
2 3 3 3 1 3 5 3 2 3 5 7 10 10 8 7 5 3 4 3 3 3 3 4 7 8 8 6 6 5 3 4 4 7 6 4 4 5 4 3 2 4 3 3 4 5 7 7 4 8 7 10 7 8 6 6 3 1 1 1 1 2 2 2 3 4 3 4 4 4 5 5 4 4 5 4 4 5 7 7 7 7 7 6 6
2 3 2 2 2 4 2 3 2 3 4 2 3 2 7 10 13 14 7 4 3 3 4 6 7 6 8 10 9 5 2 1 9 10 8 9 6 3 2 2 4 5 5 3 3 5 4 4 6 4 7 9 7 8 5 4 4 2 2 2 1 1 2 3 3 3 4 4 4 4 4 4 5 5 5 7 7 7 6 6 6 6 6 6 7
3 2 3 3 2 3 2 1 2 1 2 2 2 1 1 3 2 6 14 14 8 7 4 3 4 5 6 6 6 7 3 7 9 8 12 13 11 5 3 2 2 2 5 6 3 4 5 5 6 1 3 3 4 4 4 5 5 4 3 3 3 4 3 2 3 4 4 4 5 5 5 5 5 5 5 6 6 6 4 5 5 5 6 6 5
2 1 2 2 2 2 2 3 1 2 2 1 1 0 0 2 3 4 4 3 6 8 5 7 9 10 8 7 8 4 5 7 7 8 6 7 11 9 5 4 4 5 5 6 3 3 4 5 5 8 7 7 4 2 3 3 5 6 4 3 4 5 6 5 5 5 4 5 5 6 5 5 5 3 4 4 4 5 5 5 5 6 6 7 7
5 6 6 5 3 2 3 3 2 1 2 2 3 3 4 3 4 3 3 3 2 2 4 5 4 5 8 7 4 5 4 6 6 7 7 6 6 7 4 5 5 5 4 2 4 8 13 10 8 6 6 7 6 9 2 0 1 1 1 2 3 4 4 6 8 8 6 5 4 5 7 5 5 2 3 3 4 4 5 6 5 6 7 8 8
5 5 4 3 2 4 3 1 2 2 3 5 5 4 4 4 4 1 3 1 3 4 4 5 6 5 4 2 3 4 4 7 7 7 6 5 6 3 4 5 4 3 2 8 12 8 4 4 4 4 5 5 6 7 9 6 2 1 1 3 3 2 3 4 4 4 4 4 4 5 5 4 2 2 3 3 3 4 4 5 6 6 8 8 7
7 7 6 6 6 4 3 3 1 2 5 5 4 3 3 3 3 2 2 4 3 2 4 2 4 4 2 2 2 5 4 10 10 10 10 7 4 1 2 3 2 4 7 9 6 7 5 4 3 2 5 3 5 8 5 5 4 2 2 3 3 3 1 4 1 2 2 2 2 3 4 5 4 5 5 5 5 5 4 4 5 6 6 5 6
7 7 7 7 7 6 5 3 1 1 3 2 1 4 4 4 3 1 3 2 2 3 2 2 3 2 3 2 2 4 4 9 10 9 8 10 5 3 2 2 2 5 6 3 5 5 5 4 5 4 2 2 5 8 9 8 2 3 3 4 4 4 3 2 7 8 7 6 7 8 9 10 11 11 11 11 9 4 3 4 5 4 5 6 6
8 7 7 7 6 5 4 4 4 3 2 2 1 2 2 1 4 3 2 3 3 4 3 4 3 3 4 3 2 5 4 7 10 9 9 8 6 3 2 5 8 3 5 6 5 5 7 11 8 5 4 4 6 8 10 7 3 4 4 4 4 4 2 6 5 4 2 3 7 9 10 11 11 13 13 14 15 4 3 4 5 5 4 4 5
6 7 6 7 5 4 4 5 6 5 6 5 4 4 4 3 3 0 2 2 3 4 3 5 3 4 5 6 10 8 5 7 12 11 10 9 5 3 3 6 5 5 4 5 5 4 5 9 11 7 5 3 5 8 10 8 4 4 3 4 4 3 6 6 5 5 5 6 5 5 5 6 6 6 8 13 15 7 4 3 3 2 4 4 5
9 8 6 6 5 5 5 6 6 6 5 6 5 5 5 4 3 2 1 3 2 2 4 5 5 5 5 5 6 6 6 6 9 13 12 12 10 2 4 5 6 5 4 4 5 5 5 4 5 5 5 5 5 6 6 7 4 3 3 3 4 4 6 6 5 5 6 6 6 5 6 6 6 5 5 4 1 7 5 4 2 2 2 4 4
7 8 7 8 7 6 6 6 6 5 6 6 5 5 5 6 6 5 4 3 2 2 5 5 6 6 6 7 7 7 6 5 8 12 13 15 15 9 3 4 6 5 4 4 4 3 3 4 4 2 3 5 5 6 6 5 5 4 3 3 2 3 4 4 7 10 6 6 5 5 4 4 4 4 4 2 5 4 1 0 1 2 2 4 5
7 6 5 6 6 6 5 5 6 5 6 5 4 5 6 7 6 6 5 7 9 8 8 7 8 7 7 7 6 5 7 9 5 9 12 13 14 14 6 4 3 5 5 5 4 2 1 3 3 1 4 5 5 4 5 4 4 3 1 1 1 2 3 4 5 5 5 5 4 4 4 4 5 4 5 6 6 6 6 5 3 3 3 4 5
6 5 5 6 5 6 5 7 6 5 5 5 4 5 6 7 7 7 7 8 9 8 7 6 7 7 6 5 5 4 4 5 8 7 10 12 12 11 10 7 9 4 5 5 3 1 3 1 4 4 2 2 1 3 4 4 4 2 1 4 4 3 4 4 5 5 5 5 3 4 5 5 4 6 7 7 7 6 6 6 5 5 6 6 5
4 5 5 5 5 5 6 5 4 5 5 5 4 4 5 6 6 6 6 6 6 6 5 5 6 6 5 5 5 4 3 3 6 8 8 10 10 10 9 9 9 4 2 4 3 2 2 4 3 3 5 6 7 5 5 5 5 8 6 7 7 5 4 5 5 6 5 2 3 4 4 3 3 4 4 4 4 4 5 4 5 6 6 5 5
5 5 5 4 4 5 4 3 3 4 5 5 4 4 5 5 4 2 5 6 6 5 4 4 5 5 4 4 4 3 2 3 3 5 6 6 7 7 8 9 10 10 6 5 4 4 3 4 6 8 8 10 11 9 7 8 11 9 10 10 7 4 5 5 5 4 3 3 3 3 3 3 4 3 3 2 2 3 3 3 3 5 5 5 6
4 4 4 4 5 2 5 7 6 4 6 5 5 4 4 4 4 3 1 4 4 4 4 4 4 5 5 5 4 3 3 3 1 3 3 3 3 3 6 7 6 7 5 3 3 2 3 4 6 8 8 6 5 4 4 4 1 5 8 7 4 5 5 5 4 2 1 3 4 3 4 5 5 5 4 2 3 4 3 4 5 5 6 7 7
4 3 4 4 3 4 6 6 5 8 8 6 7 6 6 6 8 8 8 7 3 3 3 3 3 4 5 4 5 4 4 4 5 5 6 6 5 4 2 3 4 4 3 4 5 3 5 4 4 6 7 11 13 13 10 8 8 7 6 5 5 5 5 5 4 3 5 4 4 5 4 4 5 5 6 6 5 4 4 5 5 5 6 5 6
4 3 4 3 2 2 2 5 6 5 7 7 7 7 6 7 7 7 7 6 7 7 3 5 5 5 6 4 2 5 7 6 6 5 6 6 5 5 5 5 6 5 5 5 5 5 4 5 6 6 5 6 6 5 5 5 5 5 5 4 2 2 4 3 7 6 4 2 2 2 3 3 4 4 4 4 3 4 5 6 6 7 7 6 5
0 2 4 4 3 2 3 4 5 6 7 7 7 6 6 6 6 6 7 6 6 6 6 7 7 8 7 6 5 6 6 4 3 4 4 3 3 4 5 5 5 4 4 6 6 5 5 5 5 5 5 4 5 6 5 6 6 5 2 2 3 1 6 7 5 5 2 3 4 5 6 6 5 5 6 6 6 7 7 7 6 6 6 5 6
2 2 5 6 7 5 4 4 5 5 7 6 6 6 10 12 8 5 5 6 10 11 9 6 5 5 7 6 6 5 5 3 2 4 4 3 4 4 2 3 4 4 8 11 4 3 4 4 5 5 5 4 3 4 1 3 2 0 0 2 7 7 6 6 5 4 5 4 5 5 5 5 5 5 6 6 7 7 7 7 5 5 6 6 6
3 4 5 5 6 6 6 6 5 4 5 4 6 6 5 7 12 12 10 7 7 8 9 10 13 12 7 6 6 10 8 4 1 2 1 1 3 4 5 4 4 4 6 7 3 3 5 5 6 4 1 1 3 1 3 1 1 4 5 5 7 7 6 5 6 4 4 5 5 4 4 5 6 6 6 6 6 6 6 5 6 6 6 7 7
4 4 4 3 3 4 4 4 4 4 3 3 3 3 5 5 4 6 8 8 8 8 8 10 10 11 12 9 5 3 5 3 1 3 4 5 5 5 6 5 4 2 4 2 3 4 5 5 4 3 4 4 5 6 6 6 6 6 5 7 6 6 6 5 4 5 4 5 4 3 5 5 5 5 5 5 5 5 5 6 5 6 6 6 6
3 4 3 3 3 3 4 3 3 4 4 3 2 2 0 6 5 3 3 4 6 6 7 7 8 8 9 9 8 6 2 2 4 4 5 6 7 7 8 7 3 2 2 3 3 5 6 4 3 3 4 5 6 5 5 6 5 6 6 5 5 6 6 5 4 5 5 6 5 6 6 6 5 5 5 5 5 5 5 5 5 6 6 6 6
5 5 4 4 3 2 2 2 3 4 3 2 3 3 2 3 3 5 5 4 3 2 2 4 5 7 7 4 4 2 2 3 5 5 5 8 6 6 5 7 7 3 2 2 3 4 5 4 4 5 4 7 6 6 6 6 5 5 4 5 5 6 6 5 4 6 5 6 5 5 4 5 5 5 5 5 5 5 6 6 6 6 6 7 7
4 3 3 2 1 3 3 3 3 3 3 3 4 4 4 3 1 1 2 4 5 6 4 3 1 4 0 2 4 3 3 5 7 8 7 4 5 8 7 6 4 1 2 4 4 3 4 9 8 8 8 7 8 7 7 7 8 8 7 6 6 7 6 6 6 6 5 4 4 4 4 4 4 5 5 6 6 6 6 6 6 6 6 7 7
5 5 4 2 2 3 3 3 2 3 3 4 3 3 3 2 3 3 2 1 3 1 7 5 5 2 4 3 4 4 4 5 6 8 9 5 4 7 5 4 4 5 5 1 4 6 6 7 7 7 7 7 7 7 7 6 7 5 5 6 6 5 5 5 6 5 5 5 4 4 3 3 5 5 6 6 7 7 7 7 8 8 9 8 8
5 5 4 3 2 3 3 2 3 2 1 1 2 3 2 2 2 2 3 3 2 3 4 7 5 5 2 4 5 5 7 7 8 8 9 8 2 2 4 4 6 5 8 6 4 5 6 5 5 6 6 6 6 6 5 6 5 6 7 7 6 5 4 4 5 4 4 5 6 7 8 8 9 9 8 7 7 8 8 9 9 9 9 10 10
5 5 4 4 2 4 2 2 3 3 4 3 3 3 1 0 1 1 2 1 2 1 3 2 6 6 4 5 7 6 5 7 7 5 4 4 3 4 3 5 2 6 5 6 5 5 5 4 5 5 5 5 5 4 4 4 4 4 4 5 5 4 5 4 4 6 7 8 8 8 8 8 8 8 8 8 8 7 8 8 8 8 8 8 7
4 6 6 4 3 3 0 2 2 2 2 1 1 0 1 1 2 3 2 2 1 1 1 1 7 7 6 5 5 7 7 6 8 6 5 5 6 7 6 7 6 6 6 5 5 5 4 4 5 4 4 4 3 3 3 4 4 3 4 4 3 4 5 5 5 6 6 5 5 6 7 8 8 8 7 7 7 8 8 8 7 7 8 7 7
5 4 3 1 2 2 2 0 0 1 1 1 1 1 1 1 2 0 1 2 0 2 4 3 7 7 6 5 5 5 6 6 6 4 4 5 5 6 6 6 6 7 5 6 7 7 7 6 7 5 4 3 3 3 2 2 4 4 4 3 4 4 4 5 5 5 5 6 8 9 8 8 7 7 6 6 7 7 7 8 7 8 8 8 8
6 6 5 2 2 2 2 2 3 1 1 1 1 1 1 1 1 1 2 2 2 2 1 5 8 6 5 4 3 4 3 4 4 5 3 4 6 5 6 5 5 5 5 5 5 5 5 5 5 5 5 5 4 4 5 5 5 6 7 7 6 5 5 5 6 7 8 8 8 7 6 6 6 6 6 6 8 7 7 7 7 7 7 7 7
5 7 4 4 3 3 3 3 2 3 1 1 1 1 3 2 2 3 3 4 3 3 3 3 8 5 4 5 2 1 2 2 3 2 2 0 5 5 4 3 4 4 4 4 3 3 2 2 3 3 4 6 6 5 5 5 6 5 6 6 6 6 6 6 8 9 8 7 7 7 7 7 7 6 7 7 6 7 7 7 7 7 6 7 7
3 4 5 5 5 4 3 2 3 2 3 1 4 4 2 1 1 3 2 2 2 2 3 2 5 5 4 4 1 3 4 3 2 2 7 6 3 2 2 4 3 3 3 3 3 7 6 5 4 3 4 4 5 6 5 4 4 4 4 5 5 4 4 7 8 7 7 7 7 7 7 7 7 6 6 6 7 7 7 7 7 7 7 8 8
4 3 3 4 3 2 2 2 3 2 2 4 2 1 3 5 4 3 4 4 4 3 3 3 2 5 3 4 2 2 4 5 6 4 5 3 4 3 6 5 5 4 3 3 4 4 3 3 3 4 4 3 6 6 5 4 4 5 4 4 4 8 8 7 6 7 7 7 7 7 7 7 7 6 7 7 7 8 7 7 8 8 8 8 8
4 5 4 4 4 4 3 3 2 2 2 1 2 1 2 2 3 3 5 4 3 3 5 3 3 2 2 3 3 2 2 2 3 3 2 3 2 6 5 4 4 4 3 3 3 3 2 2 3 3 5 6 6 5 5 4 4 4 5 8 8 7 8 8 7 6 5 6 5 6 6 6 7 6 7 7 7 7 8 8 9 10 9 9 9
5 4 5 6 6 5 4 6 5 4 3 2 2 3 2 3 4 3 1 4 3 7 9 8 4 1 1 3 3 4 4 3 2 2 2 2 1 5 4 3 3 3 3 3 2 2 2 2 3 4 4 4 4 3 3 3 2 3 8 7 8 7 6 6 7 7 8 7 6 5 6 6 7 7 9 8 7 8 8 9 9 9 9 10 10
6 5 6 5 5 4 5 2 2 1 2 3 3 3 4 1 3 4 4 10 5 4 6 6 6 5 3 2 2 3 2 3 3 2 3 2 1 3 2 2 2 2 2 2 2 3 3 4 4 3 2 2 2 2 2 3 3 5 8 7 6 7 6 5 6 7 6 6 5 5 5 6 7 7 8 8 8 8 9 8 9 10 9 9 9
5 5 5 5 4 4 3 3 3 4 3 2 1 3 4 3 4 4 5 1 2 1 4 5 5 5 4 3 2 3 3 3 2 2 3 2 2 4 2 1 2 2 3 3 2 1 2 2 2 1 2 2 3 2 2 1 2 8 8 7 6 6 5 5 3 5 4 4 5 5 6 6 7 7 8 8 8 8 8 8 8 8 9 9 9
5 4 3 3 3 4 4 5 4 4 2 2 3 3 3 2 3 4 4 4 4 4 4 4 4 4 3 3 2 3 3 3 3 3 3 3 2 0 1 2 1 2 2 3 3 2 2 1 1 2 2 3 3 3 3 2 3 8 7 6 5 6 5 7 5 4 5 4 5 6 7 7 7 8 8 8 8 8 8 8 8 9 9 10 10
5 4 3 3 4 3 1 2 3 2 3 5 3 2 2 2 2 4 4 5 5 4 4 4 4 4 4 3 3 3 3 3 3 3 3 2 2 2 2 1 1 2 2 3 3 3 2 2 2 2 2 2 2 3 3 4 7 6 5 4 5 5 7 8 9 8 5 5 5 6 7 7 7 7 7 7 7 8 8 8 8 9 9 10 10
1 1 3 2 4 3 3 3 5 3 3 2 6 8 2 2 3 4 5 5 4 4 4 4 4 4 3 3 4 3 3 3 3 3 3 3 2 2 2 2 2 2 2 2 2 3 2 1 2 2 2 2 2 2 2 5 6 4 4 7 8 9 8 7 5 5 5 4 5 6 7 7 7 7 7 7 7 7 9 10 10 9 8 8 8
Wind_Direction
173 177 182 198 181 176 189 188 192 196 183 171 181 194 189 208 193 194 200 189 219 170 197 205 196 206 207 207 207 183 195 204 218 194 192 206 179 252 160 199 224 234 243 251 267 262 258 228 276 292 333 315 310 288 301 254 138 70 37 30 29 22 33 8 221 272 299 326 310 305 321 326 320 357 326 356 299 339 332 291 298 286 281 269 295
168 166 179 193 193 186 192 183 198 193 204 188 181 190 197 192 211 181 204 194 196 204 202 202 195 214 217 212 179 186 185 195 207 192 214 193 222 218 200 190 202 227 247 250 239 262 247 221 255 269 228 231 259 280 270 315 17 85 97 85 106 220 228 221 284 297 281 293 276 285 314 346 307 330 318 317 295 296 282 318 294 296 310 341 325
171 177 179 172 197 193 200 191 190 200 204 209 199 200 192 199 194 186 204 189 186 205 220 205 193 205 209 193 184 161 160 201 202 199 198 226 234 242 211 194 206 217 230 239 246 246 252 251 249 241 263 237 208 242 294 329 64 135 163 176 178 214 210 166 185 263 305 311 314 317 316 303 322 318 330 295 306 309 347 311 325 316 317 321 317
154 176 178 184 189 196 197 190 191 205 217 218 216 208 200 198 201 204 182 189 190 201 214 178 237 220 211 203 191 170 185 199 205 192 200 209 225 237 211 205 216 222 233 232 227 225 238 229 237 247 247 292 354 29 174 198 222 245 179 194 205 54 73 347 321 332 292 293 307 299 314 314 285 276 263 283 301 320 279 320 321 311 306 305 321
183 170 176 192 208 202 198 198 197 197 206 215 218 216 213 209 197 212 204 189 182 217 187 187 208 203 212 210 208 189 189 205 205 208 204 203 221 228 213 204 230 236 227 239 239 240 230 240 228 216 218 245 220 283 275 312 317 28 313 41 310 153 140 220 224 217 236 266 275 266 262 253 249 257 241 278 286 276 332 294 288 286 308 353 334
195 160 190 204 200 229 215 203 206 208 214 218 216 219 216 222 215 204 213 216 181 193 175 203 181 195 216 218 191 216 234 206 205 217 226 205 204 220 223 219 226 233 234 236 237 235 238 231 256 242 245 203 229 160 324 44 5 259 258 257 142 225 233 211 222 218 226 238 240 265 258 260 280 297 274 250 268 286 287 275 262 277 302 325 307
184 191 187 198 196 210 246 275 292 226 214 232 231 236 229 215 220 221 209 218 215 196 181 207 188 192 203 209 215 212 222 225 225 218 231 234 203 215 226 213 217 224 229 237 236 226 220 220 220 226 230 216 235 206 208 199 210 289 337 46 311 6 259 257 269 266 268 268 264 259 287 349 354 295 280 256 255 236 255 277 279 250 243 247 275
168 219 222 208 188 206 243 270 246 278 288 255 241 248 258 251 228 218 204 209 214 220 204 188 203 178 197 206 209 211 218 221 226 229 235 246 226 222 231 231 225 215 220 223 240 241 229 237 248 228 215 206 200 210 189 206 196 218 152 114 193 234 286 294 302 316 299 312 298 312 323 285 276 257 267 293 296 306 261 267 291 294 287 266 249
336 223 262 283 115 157 13 9 341 307 285 310 313 304 290 289 292 286 230 218 225 218 223 232 175 189 208 196 205 197 213 229 228 217 222 235 248 239 219 237 247 238 240 237 242 307 297 235 234 263 315 258 256 317 96 89 50 272 158 347 20 346 337 338 315 327 312 286 293 288 279 277 272 270 286 305 341 299 301 339 333 331 332 329 311
282 320 289 237 282 33 85 132 159 333 8 354 1 341 334 318 305 284 286 272 261 242 268 235 237 199 182 205 204 201 188 241 255 238 215 243 247 245 243 236 264 262 241 224 225 234 249 278 257 198 185 239 212 211 175 156 161 182 92 64 313 327 302 307 300 283 292 300 294 302 299 298 313 345 354 331 328 4 356 356 345 338 333 315 304
246 243 276 336 12 43 61 78 54 8 19 12 120 64 2 339 345 334 315 268 272 259 213 245 240 237 195 176 208 184 145 50 326 285 237 232 248 256 280 276 253 264 265 240 257 264 270 247 248 229 191 204 210 198 184 168 168 172 200 195 226 274 303 302 311 328 327 319 314 307 309 331 343 356 338 347 358 352 341 336 321 320 323 322 314
223 244 274 315 333 327 352 30 83 51 25 17 346 345 138 123 131 316 323 317 321 285 285 283 305 285 266 231 176 111 133 16 347 304 259 233 225 230 221 272 296 342 271 267 246 250 260 274 275 176 177 166 208 172 195 195 190 194 218 226 212 237 252 265 293 308 303 315 320 313 325 313 333 342 345 354 350 335 339 333 319 323 317 313 309
83 192 237 265 298 339 325 284 206 194 152 89 238 122 99 264 222 201 188 263 310 320 22 4 345 330 307 343 63 86 102 37 352 13 21 315 250 220 207 205 217 225 283 277 271 326 335 341 343 49 340 0 314 289 174 193 201 217 225 237 248 245 248 259 240 251 290 287 293 301 298 323 316 333 7 347 343 327 328 320 317 308 302 297 293
73 59 48 33 360 297 276 269 254 180 138 201 223 175 211 231 258 249 353 5 340 2 356 357 360 14 29 57 90 78 56 4 5 34 27 27 11 330 243 247 249 255 230 241 355 18 30 17 28 18 23 26 11 349 333 175 354 171 203 244 258 255 208 222 256 242 221 225 251 270 282 287 295 329 345 350 337 322 315 304 312 302 295 284 285
70 64 64 44 31 15 355 310 276 234 210 216 220 206 204 206 226 144 147 179 346 6 4 44 49 48 53 132 122 87 52 1 16 20 37 36 12 358 301 293 278 272 305 45 78 71 66 36 15 51 47 21 17 356 357 356 19 1 274 256 250 224 183 222 213 193 192 225 227 249 268 286 302 330 309 307 298 292 282 291 297 291 285 281 280
66 63 60 51 42 23 340 298 243 245 232 221 224 221 238 223 215 187 155 139 186 222 55 31 56 51 26 353 76 92 52 22 14 9 5 360 352 318 264 258 269 285 49 94 116 108 102 94 91 102 87 56 354 350 7 303 304 339 340 336 315 302 244 171 163 213 266 302 317 320 320 317 307 276 272 278 289 280 300 302 291 280 286 308 316
76 69 65 55 46 41 27 18 334 86 42 32 298 262 245 239 248 265 251 218 111 119 188 93 53 52 72 65 67 78 52 17 14 15 1 341 321 233 267 293 342 50 74 54 72 72 87 147 154 122 106 104 7 360 359 346 5 359 350 317 314 305 309 157 185 199 210 211 230 245 251 259 266 268 273 271 259 276 324 306 285 306 332 325 316
105 96 85 72 72 61 65 59 45 35 81 85 50 14 15 330 225 204 172 126 147 166 123 97 82 56 50 42 68 104 77 26 19 19 7 339 311 308 329 56 66 50 73 72 72 73 55 67 81 102 84 44 7 18 8 359 10 7 328 329 315 308 348 20 351 346 341 322 305 292 284 279 273 269 267 264 263 208 202 242 302 338 323 312 309
88 112 89 103 113 109 87 77 74 63 67 68 67 76 60 47 28 214 210 166 153 141 135 111 104 64 49 42 58 64 48 28 18 13 14 2 336 310 58 95 90 82 102 97 106 90 75 55 61 62 75 52 30 27 15 9 14 349 344 308 295 328 34 349 348 335 336 325 310 306 298 276 262 252 251 243 243 188 189 238 299 333 313 312 310
22 29 75 89 78 81 108 119 100 91 94 83 72 66 72 77 79 41 286 228 218 167 128 120 119 103 69 52 58 59 57 41 21 12 17 19 356 45 77 112 115 119 107 111 105 126 120 126 91 95 98 89 57 37 24 15 2 342 334 329 357 12 350 341 326 322 309 306 299 295 284 276 270 272 273 279 215 118 225 222 210 161 252 287 295
54 40 36 61 62 65 59 61 85 100 91 92 77 71 67 59 58 59 43 35 45 98 113 107 90 76 68 70 62 50 47 49 37 25 25 27 21 24 68 70 116 117 122 106 95 77 113 110 96 67 93 74 50 38 16 9 355 321 330 19 29 306 315 313 311 313 299 284 277 275 298 326 322 300 294 25 109 116 156 33 154 178 222 272 296
91 87 71 66 63 47 56 66 47 56 91 92 89 88 82 76 73 62 56 69 67 60 61 67 77 69 60 62 61 61 54 54 50 40 37 36 36 22 32 18 4 126 82 84 82 92 348 81 97 74 36 54 32 6 344 347 337 295 34 139 246 317 315 295 285 292 295 298 309 347 337 313 300 329 1 10 9 25 5 1 348 306 253 240 255
83 88 94 88 74 66 49 58 62 54 45 52 58 83 90 85 78 74 74 75 71 70 70 73 75 75 77 66 66 59 53 59 55 55 43 43 40 36 29 24 20 49 109 122 136 190 265 127 107 90 351 10 290 298 293 303 291 248 280 301 290 294 277 278 280 289 286 284 348 328 304 298 347 10 24 11 358 9 347 333 332 349 342 332 333
75 83 79 74 84 87 79 62 72 81 84 78 54 46 82 89 88 97 96 86 86 83 84 90 90 87 74 61 59 50 18 21 52 59 55 44 42 32 24 24 28 17 88 116 129 143 35 25 13 344 317 307 305 293 285 269 260 266 265 271 279 275 271 283 269 250 252 319 323 295 301 3 8 23 22 359 354 339 330 335 351 347 327 317 336
45 54 57 76 98 98 89 112 110 103 91 83 64 45 53 77 93 122 118 112 113 116 118 114 107 112 108 99 84 74 58 52 40 42 50 67 38 20 14 18 24 31 48 52 54 35 353 334 326 323 316 303 293 289 276 261 251 253 260 265 272 268 264 257 272 297 359 319 292 328 329 352 22 25 1 318 335 315 313 320 338 327 321 343 346
48 43 54 42 17 59 146 132 117 118 109 93 83 69 77 80 73 37 350 112 103 108 135 130 129 123 119 123 132 146 152 136 121 51 346 34 57 8 338 330 13 28 33 58 20 357 345 307 317 314 308 293 283 283 271 268 265 243 252 251 240 249 249 245 237 217 316 334 328 349 2 13 10 338 306 318 311 313 337 347 344 346 3 337 329
77 61 50 45 48 32 29 27 71 60 42 66 80 73 36 37 29 23 22 20 52 99 76 82 113 112 111 120 124 146 131 82 49 32 26 10 11 345 277 304 319 322 30 40 11 356 317 303 279 274 263 277 277 271 273 277 281 273 240 229 221 232 234 243 262 74 69 19 13 16 350 1 341 353 357 342 344 7 15 353 355 348 335 322 313
59 66 69 87 90 72 67 49 52 64 62 45 42 36 50 60 50 37 27 22 11 359 22 61 44 79 60 43 84 104 68 50 26 12 12 13 358 356 20 19 8 9 7 358 344 314 310 287 267 247 253 255 260 251 232 228 238 244 231 218 241 229 233 202 90 82 72 34 22 332 320 345 353 341 304 302 338 10 18 7 356 332 316 315 311
9 194 176 158 134 192 145 93 86 101 83 78 61 43 22 40 73 75 52 38 26 20 21 38 27 46 55 32 43 79 76 68 36 346 348 360 5 360 9 11 351 355 21 346 320 316 322 303 271 251 239 253 249 243 207 186 219 233 257 291 242 345 42 33 56 59 59 28 22 27 15 1 351 347 354 356 15 2 10 351 327 307 312 315 317
280 47 32 33 21 11 68 75 47 42 116 106 95 82 53 51 39 54 81 50 53 52 57 59 22 23 71 50 28 51 70 68 32 3 343 0 37 31 5 343 324 318 332 317 276 305 301 299 287 269 235 223 254 263 327 38 82 59 13 225 60 64 46 44 29 14 359 30 40 29 11 357 352 354 2 3 359 356 336 322 316 330 326 324 322
14 62 43 35 26 10 37 47 65 56 29 89 124 111 103 53 45 48 46 52 50 57 74 65 51 39 50 99 66 71 84 89 65 259 246 89 60 20 1 337 332 335 342 352 316 291 294 284 273 274 252 245 251 272 62 227 109 34 8 28 83 61 65 38 20 6 8 30 31 21 3 4 1 360 1 360 346 335 325 337 340 332 335 341 337
49 53 54 68 26 23 50 47 36 36 57 37 39 132 139 115 99 46 53 49 31 40 59 72 73 69 55 53 80 122 115 118 76 4 360 6 8 6 351 335 320 313 354 17 307 287 279 287 326 359 355 353 14 40 29 20 39 41 35 29 37 64 51 46 335 357 7 28 10 3 19 7 354 1 356 339 331 321 337 335 333 341 342 336 330
98 110 108 87 76 45 48 53 48 28 22 12 92 330 99 147 143 138 93 74 67 65 45 46 69 75 69 66 64 96 130 288 321 348 346 355 18 4 335 313 277 277 355 308 287 301 306 310 323 10 25 20 26 34 22 25 28 41 28 24 28 31 36 19 6 14 11 25 5 17 4 1 1 354 333 325 328 335 341 334 341 338 333 337 343
50 47 44 77 87 71 104 35 26 55 36 23 354 322 18 29 17 147 146 138 117 90 107 76 70 80 71 70 115 146 266 293 306 305 323 34 19 358 342 303 283 232 208 283 304 300 296 310 23 17 28 47 33 26 26 21 21 26 21 25 20 33 27 5 12 27 9 20 7 2 357 354 347 324 328 335 344 346 343 343 343 344 350 349 337
105 97 83 336 161 117 68 60 69 40 40 11 357 345 9 39 309 297 147 162 167 174 175 149 209 279 114 145 250 241 263 289 305 310 329 14 4 331 314 296 298 219 218 216 245 280 19 38 31 19 16 35 28 24 26 28 24 18 20 12 22 27 7 3 21 28 18 355 343 338 353 339 330 345 347 346 348 346 348 344 341 341 337 338 353
152 143 156 167 107 75 76 93 72 54 25 360 341 349 346 338 336 355 60 41 358 85 144 148 151 187 223 241 219 225 247 256 272 293 300 303 7 6 351 310 298 250 216 79 53 50 52 47 38 29 29 30 34 29 21 20 19 12 1 8 28 15 5 4 5 359 343 322 325 351 344 332 358 350 352 354 356 349 343 352 355 359 356 354 349
172 158 148 130 80 76 98 103 88 67 11 239 310 329 330 332 352 331 346 6 75 26 96 137 143 141 238 226 208 233 244 249 251 251 261 284 290 276 278 283 284 9 50 48 39 52 51 50 41 37 25 25 29 22 16 11 13 6 19 18 3 353 10 359 320 319 3 357 360 20 12 12 10 11 7 360 355 359 0 3 355 347 343 335 332
52 56 64 43 81 128 141 137 124 170 197 210 205 237 245 168 233 298 316 6 43 344 314 171 167 141 140 78 40 29 327 295 295 267 266 273 231 244 281 310 347 63 55 52 32 19 37 37 48 31 29 20 25 21 7 4 15 7 8 360 337 321 337 330 354 17 17 20 19 15 11 13 15 16 10 2 358 360 359 349 341 332 331 331 334
99 83 80 63 32 341 278 171 164 204 176 258 110 357 26 346 343 345 26 2 334 256 172 35 71 73 64 45 35 356 348 1 349 19 65 51 31 34 26 18 14 37 41 33 31 34 25 22 36 29 25 11 358 3 5 3 355 358 5 323 331 353 359 5 22 21 19 22 15 14 19 20 21 13 5 356 354 354 342 336 331 337 331 330 333
132 131 90 318 195 204 273 190 88 174 33 20 315 57 32 358 358 11 260 245 57 27 38 1 71 61 58 48 36 13 8 346 334 327 69 45 44 40 33 27 21 19 19 47 30 27 17 14 13 4 9 345 325 351 38 18 349 347 320 334 357 349 357 25 34 26 25 26 30 28 24 18 12 4 351 350 347 339 333 334 336 330 337 335 332
153 135 151 179 338 193 189 212 190 210 79 29 14 273 104 54 55 316 317 333 358 16 327 83 92 83 70 85 47 22 341 317 317 309 40 61 54 46 46 36 20 9 4 29 33 22 19 2 353 349 338 323 331 16 16 12 7 1 360 354 353 360 9 11 17 30 37 39 32 23 12 5 357 352 345 346 340 335 332 330 326 331 325 323 321
170 140 168 156 179 221 206 211 139 105 35 301 257 14 13 28 27 359 12 355 3 2 337 83 108 110 104 100 90 16 317 285 266 305 26 35 104 69 55 34 37 22 0 13 15 19 359 7 340 333 339 351 360 14 16 9 15 3 2 2 356 6 13 5 43 49 36 27 20 11 3 355 352 352 348 343 331 327 324 326 325 315 315 321 327
202 173 167 170 187 203 211 141 134 145 165 72 41 13 71 141 21 5 319 309 325 331 322 347 121 118 122 149 134 263 271 269 269 22 41 19 60 114 71 40 55 55 26 3 18 39 26 16 359 333 1 3 6 5 7 12 16 3 348 351 347 351 358 44 46 36 37 23 14 4 357 351 351 343 334 329 331 329 328 324 321 326 334 335 329
183 216 201 197 187 188 165 134 156 184 112 56 4 109 67 37 356 318 313 303 269 269 255 261 218 124 112 164 183 8 0 357 2 9 24 16 36 15 65 57 43 29 29 4 28 40 16 353 323 349 2 10 39 29 7 1 353 346 351 338 356 39 45 40 29 34 24 23 3 358 352 350 341 336 329 332 331 326 322 326 330 332 331 328 330
168 191 206 188 192 209 160 138 119 158 133 81 153 193 266 230 183 222 260 269 295 281 268 266 292 345 22 11 350 313 338 8 351 344 335 348 360 55 48 47 30 17 353 6 14 9 339 338 351 7 19 11 18 11 2 353 350 338 7 46 56 39 33 22 15 4 10 14 15 356 344 336 330 326 326 326 328 333 333 334 333 330 331 332 332
175 211 224 224 202 193 208 236 178 176 190 202 294 295 191 209 238 116 249 285 360 7 355 335 318 84 19 320 337 348 327 328 312 306 288 255 281 70 44 36 20 4 347 342 345 291 303 3 18 15 26 12 7 351 334 308 333 1 68 68 56 52 31 17 21 14 20 23 9 348 333 326 326 323 328 333 336 336 336 333 332 333 333 331 330
191 210 218 221 246 240 204 213 349 152 209 236 251 250 267 341 24 330 351 65 54 15 326 323 317 310 306 288 296 315 308 285 277 284 299 301 25 54 36 26 350 307 292 290 349 353 20 39 53 26 5 325 293 285 340 8 335 59 72 62 55 50 36 15 33 38 18 356 344 335 335 325 323 326 332 337 334 333 331 331 330 330 328 324 323
207 212 227 240 224 233 217 159 150 98 45 6 281 313 319 326 326 309 280 282 48 237 251 269 287 288 291 293 290 273 266 267 272 278 274 284 24 59 34 1 330 341 347 338 299 288 30 31 39 337 292 327 338 16 328 360 337 78 74 69 59 63 31 35 43 49 16 348 341 340 331 326 323 325 329 328 327 327 325 325 326 320 317 314 313
216 207 208 232 247 233 236 237 170 142 191 220 241 241 252 314 323 311 305 288 271 268 270 274 273 260 259 274 282 299 317 322 317 322 321 319 345 39 247 269 357 354 317 306 323 354 42 6 2 339 353 349 8 343 336 339 20 72 77 74 80 78 65 70 66 44 358 350 346 335 328 323 322 318 318 320 321 321 317 311 305 311 310 311 311
27 32 349 284 260 269 354 303 253 199 216 252 275 259 234 208 233 253 272 281 273 267 270 268 275 294 304 311 296 274 269 290 297 298 281 276 278 277 278 319 15 352 336 329 344 330 329 352 358 338 338 350 350 352 334 27 59 61 63 98 120 84 60 74 78 43 14 356 343 323 315 307 307 307 308 310 312 311 308 307 305 303 302 303 304
121 347 278 294 329 334 80 327 288 238 184 228 271 295 331 168 226 239 250 249 255 267 287 289 284 284 285 281 280 282 281 287 296 302 313 305 297 281 300 341 329 320 320 323 297 284 312 348 344 348 331 335 333 3 347 65 61 57 102 97 75 61 52 32 30 37 23 343 318 310 302 302 300 302 304 308 309 306 298 298 298 292 290 297 298